Zurück zum Katalog

FENGYUN 1C DEB

LostSSO
NORAD 32339·DEBRIS·🇨🇳 China

Gestartet May 10, 1999 von Taiyuan Satellite Launch Center

Loading…

Nächste Überflüge (nächste 24 Stunden)

TLE

VeraltetSource: Space-Track

Epoche: Feb 3, 2024, 23:44 UTC

1 32339U 99025CYG 24034.98945937  .00004666  00000-0  16815-2 0  9997
2 32339  98.5976 104.7914 0042987 275.5917  84.0366 14.33627374549429

Verfolge FENGYUN 1C DEB in Echtzeit mit AllMySat

Download on the App Store